Hourly Data Report for October 29, 2013

All times are specified in Local Standard Time (LST). Add 1 hour to adjust for Daylight Saving Time where and when it is observed.

CHARLOTTETOWN A
PRINCE EDWARD ISLAND

46°17'21.000" N
63°07'09.000" W
48.50 m
8300301
71706
YYG

Download Data

Hourly Data (October 2013)
Hourly Data Report for October 29, 2013
Temp Definition
°C
Dew Point Temp Definition
°C
Rel Hum Definition
%
Wind Dir Definition
10's deg

Wind Spd Definition
km/h
Visibility Definition
km
Stn Press Definition
kPa
Hmdx Definition


Wind Chill Definition


Weather Definition


TIME
00:00 Legend Double Dagger 0.7 -1.5 85 27 14 24.1 101.51     LegendNANA
01:00 Legend Double Dagger 1.4 -2.0 78 28 13 24.1 101.57     LegendNANA
02:00 Legend Double Dagger 1.3 -2.5 76 28 16 24.1 101.63     Clear
03:00 Legend Double Dagger 0.8 -2.4 79 27 14 24.1 101.68     LegendNANA
04:00 Legend Double Dagger -0.3 -2.8 83 26 12 24.1 101.75   -4 LegendNANA
05:00 Legend Double Dagger -0.5 -3.0 83 26 13 24.1 101.81   -5 Clear
06:00 Legend Double Dagger -0.8 -3.5 82 26 14 24.1 101.86   -5 LegendNANA
07:00 Legend Double Dagger -1.1 -3.6 83 26 13 24.1 101.93   -5 LegendNANA
08:00 Legend Double Dagger 0.7 -3.1 76 27 14 24.1 102.03     Mainly Clear
09:00 Legend Double Dagger 2.3 -1.9 74 29 14 24.1 102.06     LegendNANA
10:00 Legend Double Dagger 3.2 -2.1 68 27 14 24.1 102.06     LegendNANA
11:00 Legend Double Dagger 4.1 -3.2 59 25 15 24.1 102.04     Mainly Clear
12:00 Legend Double Dagger 4.7 -3.8 54 26 23 24.1 101.99     LegendNANA
13:00 Legend Double Dagger 4.9 -3.6 54 27 26 24.1 101.92     LegendNANA
14:00 Legend Double Dagger 4.9 -6.4 44 28 23 24.1 101.92     Mainly Clear
15:00 Legend Double Dagger 4.8 -4.8 50 29 21 24.1 101.97     LegendNANA
16:00 Legend Double Dagger 4.1 -4.6 53 27 18 24.1 102.04     LegendNANA
17:00 Legend Double Dagger 2.5 -4.3 61 27 8 24.1 102.09     Mainly Clear
18:00 Legend Double Dagger 1.1 -4.8 65 29 10 24.1 102.12     LegendNANA
19:00 Legend Double Dagger -0.1 -5.3 68 29 6 24.1 102.12   -2 LegendNANA
20:00 Legend Double Dagger -0.4 -5.6 68 31 6 24.1 102.14   -2 Mainly Clear
21:00 Legend Double Dagger -0.4 -5.6 68 28 7 24.1 102.17   -3 LegendNANA
22:00 Legend Double Dagger -0.8 -5.6 70 27 12 24.1 102.19   -5 LegendNANA
23:00 Legend Double Dagger -1.3 -5.5 73 27 11 24.1 102.15   -5 Mainly Clear

Notes on Data Quality.

Legend

  • E = Estimated
  • M = Missing
  • NA = Not Available
  • ‡ = Partner data that is not subject to review by the National Climate Archives
Date modified: